Location: Jaite
(41.2884°N, 81.5737°W)
Time: 12:37:06
(UTC+00:00)

Okean-O - Pass Details

Date: 18 January 2020
Orbit: 639 x 640 km, 98.2° (Epoch: 16 February)

Event Time Altitude Azimuth Distance (km) Brightness Sun altitude
Rises 23:59:23 0° 188° (S) 2,930 6.3 -17.7°
Reaches altitude 10° 00:01:45 10° 197° (SSW) 2,026 5.6 -18.1°
Maximum altitude 00:05:46 34° 263° (W) 1,064 4.4 -18.8°
Drops below altitude 10° 00:09:48 10° 328° (NNW) 2,040 5.5 -19.6°
Sets 00:12:11 0° 338° (NNW) 2,954 6.2 -20.0°
